Irving North's Hourly Summary for Sunday, March 12, 2017
Hour Temp
(f)
RH
(%)
Solar Rad.
(MJ/m2)
Rainfall
(in)
Wind
(mph)
3/12/2017 12:00 AM 48 74 0 0 8.92
3/12/2017 1:00 AM 47 73 0 0 9.13
3/12/2017 2:00 AM 46 78 0 0 9.27
3/12/2017 3:00 AM 44 78 0 0 10.35
3/12/2017 4:00 AM 43 79 0 0 9.71
3/12/2017 5:00 AM 43 79 0 0 8.64
3/12/2017 6:00 AM 42 80 0 0 8.37
3/12/2017 7:00 AM 42 78 0 0 7.25
3/12/2017 8:00 AM 42 74 0.08 0 6.93
3/12/2017 9:00 AM 42 74 0.32 0 6.4
3/12/2017 10:00 AM 43 72 0.54 0 5.55
3/12/2017 11:00 AM 44 71 0.62 0 3.02
3/12/2017 12:00 PM 45 70 0.71 0 3.53
3/12/2017 1:00 PM 46 66 0.83 0 2.21
3/12/2017 2:00 PM 48 63 1.24 0 1.72
3/12/2017 3:00 PM 49 61 1.31 0 2.65
3/12/2017 4:00 PM 51 58 1.59 0 3.42
3/12/2017 5:00 PM 52 57 1.17 0 2
3/12/2017 6:00 PM 52 59 0.49 0 2.19
3/12/2017 7:00 PM 50 63 0.06 0 2.31
3/12/2017 8:00 PM 50 67 0 0 4.13
3/12/2017 9:00 PM 49 69 0 0 6.92
3/12/2017 10:00 PM 48 73 0 0 7.16
3/12/2017 11:00 PM 49 77 0 0 4.69
Data Summary 46 70 8.96 0.00 5.69